FW7407 Weather Reports


time (UTC)temp
F
wind
direction
speed
knots
gust
knots
rain 1hr
in
rain 24hr
in
rain mn
in
humidity
%
barometer
mb
20260507143049 58 0 0.0 0.0 0.00 0.00 0.00 95 1017.2
20260507141606 57 0 0.0 0.0 0.00 0.00 0.00 95 1017.1
20260507140055 56 0 0.0 0.0 0.00 0.00 0.00 95 1017.0
20260507134556 55 0 0.0 0.0 0.00 0.00 0.00 95 1016.8
20260507133051 55 0 0.0 0.0 0.00 0.00 0.00 94 1016.6
20260507131547 55 0 0.0 0.0 0.00 0.00 0.00 94 1016.6
20260507130047 55 0 0.0 0.0 0.00 0.00 0.00 95 1016.4
20260507124546 55 0 0.0 0.0 0.00 0.00 0.00 94 1016.3
20260507123050 55 0 0.0 0.0 0.00 0.00 0.00 94 1016.3
20260507121548 56 0 0.0 0.0 0.00 0.00 0.00 94 1016.2
20260507120054 55 0 0.0 0.0 0.00 0.00 0.00 94 1016.3
20260507114547 55 0 0.0 0.0 0.00 0.00 0.00 94 1016.3
20260507113047 55 0 0.0 0.0 0.00 0.00 0.00 94 1016.3
20260507111551 55 51 0.0 0.9 0.00 0.00 0.00 94 1016.5
20260507110045 55 0 0.0 0.0 0.00 0.00 0.00 94 1016.7
20260507104556 56 0 0.0 0.0 0.00 0.00 0.00 94 1016.8
20260507103049 55 0 0.0 0.0 0.00 0.00 0.00 94 1016.8
20260507101551 56 0 0.0 0.0 0.00 0.00 0.00 94 1016.8
20260507100047 56 0 0.0 0.0 0.00 0.00 0.00 95 1016.8
20260507094548 56 0 0.0 0.9 0.00 0.00 0.00 94 1016.9
20260507093047 56 0 0.0 0.0 0.00 0.00 0.00 95 1017.0
20260507091544 56 0 0.0 0.0 0.00 0.00 0.00 94 1017.2
20260507090046 56 0 0.0 2.6 0.00 0.00 0.00 95 1017.3
20260507084553 57 0 0.0 0.0 0.00 0.00 0.00 94 1017.7
20260507083049 57 0 0.0 0.0 0.00 0.00 0.00 95 1017.7
20260507081557 57 0 0.0 0.0 0.00 0.00 0.00 94 1017.9
20260507080050 57 0 0.0 0.9 0.00 0.00 0.00 94 1018.0
20260507074552 57 60 0.0 0.9 0.00 0.00 0.00 93 1017.9
20260507073052 58 67 0.0 0.9 0.00 0.00 0.00 93 1017.9
20260507071557 58 0 0.0 2.6 0.00 0.00 0.00 92 1017.9
20260507070059 58 10 0.9 3.5 0.00 0.00 0.00 92 1018.0
20260507064553 58 50 0.0 1.7 0.00 0.00 0.00 91 1018.1
20260507063053 58 37 0.0 2.6 0.00 0.00 0.00 91 1018.2
20260507061552 58 0 0.0 1.7 0.00 0.00 0.00 90 1018.1
20260507060055 58 0 0.0 2.6 0.00 0.00 0.00 90 1018.3
20260507054548 58 0 0.0 0.0 0.00 0.00 0.00 88 1018.1
20260507053056 58 0 0.0 0.0 0.00 0.00 0.00 87 1017.9
20260507051549 58 0 0.0 0.0 0.00 0.00 0.00 86 1017.8
20260507050050 59 0 0.0 0.0 0.00 0.00 0.00 86 1017.8
20260507044557 59 0 0.0 0.0 0.00 0.00 0.00 86 1017.8
20260507043048 58 0 0.0 0.0 0.00 0.00 0.00 87 1017.8
20260507041550 59 0 0.0 1.7 0.00 0.00 0.00 87 1017.9
20260507040055 59 0 0.0 2.6 0.00 0.00 0.00 87 1017.8
20260507034550 60 21 0.9 2.6 0.00 0.00 0.00 86 1017.8
20260507033046 60 348 2.6 5.2 0.00 0.00 0.00 86 1017.6
20260507031553 60 335 1.7 4.3 0.00 0.00 0.00 86 1017.6
20260507030100 60 311 3.5 7.0 0.00 0.00 0.00 86 1017.4
20260507024555 61 323 2.6 6.1 0.00 0.00 0.00 88 1017.1
20260507023055 61 296 3.5 7.8 0.00 0.00 0.00 88 1017.1
20260507021551 62 308 3.5 6.1 0.00 0.00 0.00 87 1017.0
20260507020052 62 297 0.9 6.1 0.00 0.00 0.00 87 1017.0
20260507014554 62 300 1.7 6.1 0.00 0.00 0.00 87 1016.9
20260507013057 63 293 2.6 7.0 0.00 0.00 0.00 86 1016.9
20260507011548 63 302 3.5 7.8 0.00 0.00 0.00 86 1016.8
20260507010046 64 321 3.5 7.8 0.00 0.00 0.00 85 1016.8
20260507004550 64 285 4.3 7.8 0.00 0.00 0.00 85 1016.7
20260507003047 64 258 4.3 8.7 0.00 0.00 0.00 85 1016.8
20260507001548 65 293 4.3 7.8 0.00 0.00 0.00 84 1016.7
20260507000055 65 217 3.5 8.7 0.00 0.00 0.00 83 1016.5
20260506234553 66 318 3.5 7.8 0.00 0.00 0.00 82 1016.6
20260506233052 66 238 2.6 9.6 0.00 0.00 0.00 77 1016.6
20260506231551 66 264 3.5 7.8 0.00 0.00 0.00 75 1016.6
20260506230055 66 259 3.5 7.0 0.00 0.00 0.00 73 1016.6
20260506224600 66 311 3.5 7.8 0.00 0.00 0.00 73 1016.8
20260506223055 66 307 3.5 6.1 0.00 0.00 0.00 74 1017.1
20260506221545 65 304 3.5 6.1 0.00 0.00 0.00 79 1017.3
20260506220048 66 211 3.5 7.0 0.00 0.00 0.00 81 1017.5
20260506214606 66 177 2.6 6.1 0.00 0.00 0.00 81 1017.7
20260506213047 66 281 2.6 7.8 0.00 0.00 0.00 80 1017.8
20260506211550 66 310 2.6 7.0 0.00 0.00 0.00 80 1017.9
20260506210051 65 316 4.3 7.0 0.00 0.00 0.00 78 1018.0
20260506204551 66 245 3.5 7.0 0.00 0.00 0.00 79 1018.1
20260506203051 66 265 2.6 7.0 0.00 0.00 0.00 78 1018.2
20260506201550 65 259 3.5 7.0 0.00 0.00 0.00 79 1018.3
20260506200051 65 280 3.5 7.0 0.00 0.00 0.00 77 1018.4
20260506194600 66 276 2.6 6.1 0.00 0.00 0.00 77 1018.6
20260506193046 65 223 2.6 5.2 0.00 0.00 0.00 79 1018.7
20260506191545 65 304 3.5 6.1 0.00 0.00 0.00 78 1018.9
20260506190047 65 237 3.5 5.2 0.00 0.00 0.00 78 1019.1
20260506184545 64 227 2.6 6.1 0.00 0.00 0.00 81 1019.2
20260506183047 64 233 2.6 4.3 0.00 0.00 0.00 81 1019.2
20260506181547 64 219 2.6 5.2 0.00 0.00 0.00 81 1019.4
20260506180051 63 234 2.6 5.2 0.00 0.00 0.00 83 1019.3
20260506174545 64 249 2.6 5.2 0.00 0.00 0.00 81 1019.2
20260506173049 64 191 2.6 5.2 0.00 0.00 0.00 82 1019.1
20260506171553 63 217 2.6 5.2 0.00 0.00 0.00 81 1019.1
20260506170055 63 126 2.6 5.2 0.00 0.00 0.00 82 1019.1
20260506164550 62 208 1.7 4.3 0.00 0.00 0.00 84 1019.3
20260506163048 61 237 1.7 3.5 0.00 0.00 0.00 84 1019.1
20260506161604 62 134 0.9 2.6 0.00 0.00 0.00 84 1019.1
20260506160052 62 240 0.9 3.5 0.00 0.00 0.00 82 1019.2
20260506154610 62 145 0.9 5.2 0.00 0.00 0.00 83 1019.0
20260506153049 62 234 1.7 4.3 0.00 0.00 0.00 82 1019.0
20260506151548 63 169 0.0 2.6 0.00 0.00 0.00 81 1019.0
20260506150054 63 134 0.9 1.7 0.00 0.00 0.00 82 1019.1
20260506144558 61 106 0.0 0.9 0.00 0.00 0.00 87 1019.0